[[{"header":{"parameterUnit":"m.s-1","parameterCategory":2,"la1":30.2991,"la2":30.254,"lo1":-89.0895,"lo2":-89.0444,"dy":0.0017,"dx":0.0017,"nx":28,"ny":28,"refTime":"2025-03-11T09:00:00:Z","depth":"0","parameterNumber":2,"parameterNumberName":"U-component_of_CURRENTS"},"data":[0,0,0,0,0,0,0,0,0,0,0,0,0,0,0,0,0,0,0,0,0,0,0,0,0,0,0,0,0,0,0,0,0,0,0,0,0,0,0,0,0,0,0,0,0,0,0,0,0,0,0,0,0,0,0,0,0,0,0.3358,0.3358,0,0.33,0.3299,0.3297,0.3304,0.3306,0.3308,0.3309,0.3282,0.328,0.3278,0,0,0,0,0,0,0,0,0,0,0,0,0,0.334,0.334,0.3358,0.3358,0.3358,0.33,0.3299,0.3297,0.3304,0.3306,0.3308,0.331,0.3283,0.328,0.3277,0,0,0,0,0,0,0,0,0,0,0,0,0,0.3314,0.3341,0.3358,0.336,0.3361,0.33,0.3298,0.3297,0.3304,0.3306,0.3309,0.3311,0.3284,0.328,0.3277,0.3206,0,0,0.3267,0.3265,0,0,0,0,0,0,0,0,0.3316,0.3314,0.336,0.336,0.336,0.3319,0.3282,0.3271,0.3303,0.3317,0.3309,0.3312,0.33,0.3296,0.3268,0.3205,0.3204,0.3266,0.3264,0.3263,0.3262,0,0,0,0,0,0,0,0.3318,0.3316,0.3327,0.336,0.336,0.3318,0.3318,0.3279,0.329,0.3316,0.3318,0.3323,0.33,0.3271,0.3268,0.3204,0.3266,0.3263,0.3261,0.326,0.3225,0.3227,0,0,0,0,0,0,0.3345,0.3318,0.3329,0.3326,0.3353,0.3318,0.3317,0.3323,0.329,0.3289,0.3321,0.3324,0.3276,0.3271,0.3267,0.3305,0.3263,0.326,0.3258,0.3224,0.3226,0.3227,0,0,0,0,0,0,0.3345,0.3346,0.3332,0.3327,0.3323,0.3317,0.3323,0.3321,0.3306,0.3295,0.3294,0.3313,0.3277,0.3272,0.3257,0.33,0.3258,0.3255,0.3223,0.3225,0.3226,0.3302,0,0,0,0,0,0,0.3344,0.3347,0.3344,0.3329,0.3325,0.3294,0.3322,0.3318,0.3309,0.3312,0.3286,0.3286,0.3279,0.3262,0.3253,0.3294,0.3252,0.3222,0.3224,0.3226,0.3298,0.3306,0.3313,0,0,0,0,0,0.3344,0.3315,0.3344,0.3345,0.3327,0.3293,0.3285,0.3284,0.3306,0.3282,0.3291,0.3287,0.3271,0.3258,0.3249,0.329,0.3221,0.3223,0.3226,0.3295,0.3305,0.3313,0,0,0,0,0,0,0.3284,0.3314,0.3344,0.3323,0.3319,0.3298,0.3267,0.3281,0.3262,0.3272,0.3274,0.3272,0.3284,0.3263,0.325,0.3288,0.3255,0.3255,0.3311,0.332,0.3327,0.3399,0.325,0,0,0,0,0,0.328,0.328,0.3298,0.328,0.3279,0.3279,0.3263,0.327,0.3261,0.3255,0.3252,0.326,0.3279,0.3281,0.3271,0.3265,0.3315,0.3294,0.3301,0.3308,0.336,0.3468,0.3492,0.3235,0.3235,0.3235,0,0,0.325,0.3269,0.3266,0.327,0.3263,0.3268,0.3272,0.3246,0.3278,0.3253,0.3271,0.3269,0.3281,0.3298,0.3304,0.3291,0.34,0.3311,0.3317,0.3367,0.3474,0.35,0.3523,0.3237,0.3237,0.3236,0,0,0.3188,0.3211,0.3195,0.3206,0.3215,0.3229,0.3232,0.3225,0.3249,0.3249,0.3281,0.3319,0.3286,0.3349,0.3371,0.3408,0.3431,0.3387,0.3488,0.3591,0.3614,0.3636,0.3711,0.3738,0.3397,0.3397,0.3397,0,0.3149,0.3166,0.3175,0.3177,0.3211,0.3227,0.3242,0.3253,0.3251,0.3309,0.3265,0.3349,0.3335,0.3461,0.3478,0.3434,0.348,0.3452,0.3606,0.3628,0.3649,0.3721,0.375,0.3401,0.3401,0.34,0.34,0,0.3095,0.3124,0.3109,0.3158,0.3178,0.3181,0.324,0.3271,0.3305,0.3349,0.3447,0.3443,0.3524,0.3514,0.3501,0.3658,0.3636,0.3599,0.3592,0.368,0.3748,0.3778,0.3407,0.3406,0.3404,0.3403,0,0,0.298,0.3062,0.3063,0.3131,0.3189,0.3209,0.3287,0.3389,0.3487,0.3495,0.363,0.3671,0.3704,0.3735,0.3741,0.3822,0.3976,0.3775,0.3778,0.3867,0.4197,0.4138,0.4163,0.3963,0.3969,0.3973,0.4179,0,0.2949,0.2989,0.3042,0.3121,0.3168,0.3265,0.3349,0.3452,0.3533,0.3648,0.3732,0.3817,0.3781,0.382,0.3913,0.3957,0.4062,0.3924,0.4086,0.4092,0.4043,0.4199,0.4045,0.4213,0.4208,0.4213,0.4216,0,0.2893,0.2953,0.3019,0.3194,0.3222,0.3272,0.3481,0.3553,0.3736,0.3806,0.3946,0.3989,0.4149,0.4064,0.4275,0.4185,0.4225,0.4245,0.4253,0.4207,0.409,0.4127,0.4267,0.4163,0.4262,0.4258,0.4255,0,0.285,0.2955,0.3034,0.308,0.3243,0.3326,0.342,0.3601,0.3712,0.3913,0.4,0.4191,0.4271,0.4382,0.4435,0.4369,0.4632,0.454,0.4544,0.4538,0.445,0.4427,0.4533,0.4725,0.4724,0.4724,0.4723,0,0.2827,0.2892,0.3024,0.3069,0.3203,0.3315,0.3475,0.3604,0.3796,0.3949,0.4072,0.4228,0.4351,0.4495,0.4533,0.4653,0.4732,0.4632,0.4621,0.4464,0.4441,0.4377,0.4323,0.4731,0.473,0.4728,0.4727,0,0.2771,0.2844,0.2953,0.3123,0.318,0.3273,0.3484,0.3603,0.3775,0.398,0.4045,0.4292,0.4487,0.4597,0.4779,0.4769,0.4757,0.4892,0.4687,0.4649,0.4511,0.4465,0.4439,0.4302,0.4947,0.4948,0.4948,0,0.2759,0.2797,0.2965,0.3039,0.3115,0.3265,0.3369,0.357,0.3695,0.4028,0.4116,0.4373,0.4543,0.4791,0.4846,0.4952,0.4798,0.4846,0.4703,0.4555,0.4497,0.429,0.416,0.4607,0.4605,0.4603,0.4601,0,0.2772,0.2811,0.2916,0.3029,0.3139,0.3259,0.3414,0.3504,0.3751,0.3915,0.4154,0.4315,0.4586,0.4652,0.4796,0.4836,0.4617,0.4804,0.4727,0.434,0.4053,0.3894,0.4397,0.4582,0.4584,0.4586,0.4587,0.4587,0.2815,0.2861,0.2975,0.3077,0.3168,0.3239,0.3301,0.3453,0.3616,0.3832,0.4056,0.4215,0.4429,0.4617,0.4629,0.4562,0.4509,0.4437,0.4427,0.4255,0.4027,0.4484,0.4595,0.4597,0.4598,0.46,0.4601,0,0.2918,0.2952,0.3029,0.3131,0.3161,0.3217,0.3329,0.3357,0.347,0.3676,0.3837,0.4013,0.4131,0.4268,0.4334,0.4204,0.3981,0.4107,0.3796,0.3709,0.4212,0.4098,0.4014,0.4014,0.4014,0.4014,0.4014,0.4014,0.3011,0.3079,0.3072,0.3117,0.3142,0.3147,0.3171,0.3196,0.3288,0.3379,0.3455,0.3587,0.3897,0.4132,0.407,0.3965,0.365,0.3509,0.348,0.3861,0.3889,0.3915,0.3796,0.365,0.3649,0.2796,0.279,0.2785]},{"header":{"parameterUnit":"m.s-1","parameterCategory":2,"la1":30.2991,"la2":30.254,"lo1":-89.0895,"lo2":-89.0444,"dy":0.0017,"dx":0.0017,"nx":28,"ny":28,"refTime":"2025-03-11T09:00:00:Z","depth":"0","parameterNumber":3,"parameterNumberName":"V-component_of_CURRENTS"},"data":[0,0,0,0,0,0,0,0,0,0,0,0,0,0,0,0,0,0,0,0,0,0,0,0,0,0,0,0,0,0,0,0,0,0,0,0,0,0,0,0,0,0,0,0,0,0,0,0,0,0,0,0,0,0,0,0,0,0,-0.0255,-0.0255,0,-0.0272,-0.0273,-0.0273,-0.0321,-0.0322,-0.0323,-0.0324,-0.0406,-0.0407,-0.0409,0,0,0,0,0,0,0,0,0,0,0,0,0,-0.029,-0.029,-0.0255,-0.0255,-0.0255,-0.0272,-0.0273,-0.0273,-0.0321,-0.0322,-0.0323,-0.0324,-0.0405,-0.0407,-0.0409,0,0,0,0,0,0,0,0,0,0,0,0,0,-0.029,-0.0289,-0.0255,-0.0279,-0.0281,-0.0272,-0.0273,-0.0273,-0.0321,-0.0322,-0.0323,-0.0324,-0.0405,-0.0407,-0.0409,-0.0398,0,0,-0.0416,-0.0417,0,0,0,0,0,0,0,0,-0.029,-0.0289,-0.0276,-0.0277,-0.028,-0.0294,-0.0315,-0.0317,-0.0321,-0.0309,-0.0324,-0.0325,-0.0372,-0.0377,-0.038,-0.0402,-0.0406,-0.0416,-0.0417,-0.0418,-0.0419,0,0,0,0,0,0,0,-0.029,-0.0289,-0.0265,-0.0275,-0.0278,-0.0298,-0.0299,-0.0316,-0.0336,-0.031,-0.0313,-0.031,-0.0374,-0.0378,-0.0382,-0.0407,-0.0416,-0.0418,-0.0419,-0.042,-0.045,-0.0449,0,0,0,0,0,0,-0.028,-0.0289,-0.0264,-0.0265,-0.0285,-0.0296,-0.0298,-0.029,-0.0335,-0.0342,-0.0309,-0.0312,-0.0373,-0.038,-0.0386,-0.039,-0.0418,-0.042,-0.0421,-0.045,-0.045,-0.0449,0,0,0,0,0,0,-0.0281,-0.0277,-0.0263,-0.0276,-0.0275,-0.0294,-0.0285,-0.029,-0.0293,-0.0333,-0.0342,-0.0308,-0.0375,-0.0383,-0.0399,-0.0393,-0.0421,-0.0423,-0.0451,-0.045,-0.0449,-0.0388,0,0,0,0,0,0,-0.0281,-0.0277,-0.0263,-0.0275,-0.0274,-0.0244,-0.0284,-0.0289,-0.0289,-0.0293,-0.0335,-0.0344,-0.0376,-0.0395,-0.0401,-0.0396,-0.0425,-0.0451,-0.045,-0.045,-0.0391,-0.0386,-0.0381,0,0,0,0,0,-0.0283,-0.0242,-0.0262,-0.0259,-0.0255,-0.0243,-0.0244,-0.0264,-0.0287,-0.0275,-0.0313,-0.0342,-0.0394,-0.0396,-0.0403,-0.0399,-0.0452,-0.0451,-0.045,-0.0393,-0.0387,-0.0381,0,0,0,0,0,0,-0.0232,-0.0244,-0.0266,-0.0228,-0.0235,-0.025,-0.0231,-0.0255,-0.0274,-0.0282,-0.0332,-0.0342,-0.0355,-0.0381,-0.0383,-0.0405,-0.0429,-0.0429,-0.0384,-0.0378,-0.0373,-0.0368,-0.0427,0,0,0,0,0,-0.0219,-0.0203,-0.0219,-0.0188,-0.0189,-0.0214,-0.0211,-0.0229,-0.0247,-0.0256,-0.0289,-0.0326,-0.0354,-0.0369,-0.0393,-0.0399,-0.0425,-0.0403,-0.0398,-0.0393,-0.0394,-0.0442,-0.0442,-0.0445,-0.0445,-0.0445,0,0,-0.0186,-0.0193,-0.0182,-0.0179,-0.0186,-0.0174,-0.0215,-0.0201,-0.0201,-0.0262,-0.0267,-0.0305,-0.0351,-0.0363,-0.0372,-0.0385,-0.0397,-0.0392,-0.0388,-0.0391,-0.0441,-0.0441,-0.0441,-0.0445,-0.0445,-0.0445,0,0,-0.0119,-0.0125,-0.0097,-0.0103,-0.0111,-0.0129,-0.0124,-0.0143,-0.0161,-0.0169,-0.022,-0.0257,-0.0285,-0.0328,-0.0352,-0.0332,-0.0367,-0.0335,-0.0309,-0.0356,-0.0356,-0.0357,-0.0351,-0.0352,-0.0335,-0.0335,-0.0335,0,-0.0081,-0.0057,-0.0083,-0.0064,-0.006,-0.0107,-0.008,-0.01,-0.0125,-0.0138,-0.016,-0.0228,-0.0272,-0.0306,-0.0308,-0.0322,-0.0336,-0.0327,-0.035,-0.0351,-0.0353,-0.0348,-0.035,-0.0332,-0.0332,-0.0333,-0.0333,0,-0.0008,0.0009,0.0032,0.0027,0.0029,0.005,0.0014,0.0005,-0.0029,-0.0058,-0.0093,-0.0159,-0.0202,-0.0225,-0.0265,-0.0299,-0.0296,-0.0335,-0.0364,-0.0349,-0.0344,-0.0347,-0.0328,-0.0329,-0.033,-0.033,0,0,0.0077,0.0081,0.0086,0.0096,0.0075,0.0091,0.0084,0.0068,0.0074,0.0015,0.0015,-0.0074,-0.0118,-0.015,-0.0209,-0.0264,-0.0287,-0.0302,-0.0306,-0.0294,-0.0349,-0.0317,-0.0317,-0.0332,-0.0333,-0.0334,-0.0326,0,0.0138,0.019,0.0169,0.0217,0.0241,0.0192,0.0197,0.017,0.0139,0.013,0.003,0.001,-0.0086,-0.01,-0.0174,-0.0248,-0.0299,-0.0283,-0.0369,-0.037,-0.0343,-0.0322,-0.0301,-0.0291,-0.033,-0.033,-0.0331,0,0.0206,0.023,0.0284,0.0305,0.0312,0.0326,0.0325,0.0324,0.0277,0.0256,0.0194,0.0132,0.0048,-0.0034,-0.0176,-0.0157,-0.0253,-0.0324,-0.0327,-0.0325,-0.0345,-0.0321,-0.0296,-0.0512,-0.0336,-0.0335,-0.0335,0,0.0269,0.0311,0.0355,0.0361,0.0374,0.0384,0.0385,0.0358,0.0386,0.0337,0.0363,0.0237,0.0218,0.0054,-0.0091,-0.0136,-0.0225,-0.0303,-0.0364,-0.036,-0.0375,-0.0371,-0.0572,-0.0419,-0.0419,-0.0419,-0.0419,0,0.0336,0.0376,0.0389,0.0414,0.048,0.0453,0.0517,0.0496,0.0506,0.0586,0.0433,0.0488,0.0235,0.0159,-0.0026,-0.0167,-0.0174,-0.0348,-0.0365,-0.0347,-0.0341,-0.0557,-0.0689,-0.0419,-0.0419,-0.0419,-0.0419,0,0.0399,0.0404,0.0466,0.0493,0.0511,0.0554,0.0624,0.068,0.0662,0.0765,0.0764,0.0691,0.0602,0.0369,0.0156,-0.0035,-0.0318,-0.0263,-0.0192,-0.0203,-0.0493,-0.062,-0.0818,-0.0905,-0.0344,-0.0343,-0.0343,0,0.0434,0.0467,0.0533,0.0593,0.0611,0.0679,0.0743,0.0753,0.0842,0.0929,0.1007,0.0946,0.0967,0.0666,0.0308,0.0007,-0.024,-0.0195,-0.0312,-0.0496,-0.0652,-0.0749,-0.0815,-0.029,-0.0289,-0.0288,-0.0287,0,0.0505,0.0522,0.0581,0.07,0.078,0.0888,0.0989,0.1088,0.1151,0.1269,0.1431,0.1454,0.1169,0.0887,0.0441,0.0201,-0.0346,-0.0188,-0.0424,-0.066,-0.0736,-0.0828,-0.0274,-0.028,-0.0281,-0.0281,-0.0282,-0.0282,0.0561,0.0622,0.0704,0.0822,0.0937,0.1097,0.1218,0.1372,0.1566,0.1786,0.1781,0.1876,0.1391,0.0791,0.043,-0.0252,-0.0287,-0.0486,-0.0626,-0.0706,-0.0805,-0.0201,-0.0206,-0.0206,-0.0206,-0.0206,-0.0207,0,0.0623,0.0704,0.0826,0.098,0.1137,0.117,0.1393,0.1555,0.1839,0.2046,0.221,0.2035,0.145,0.0795,-0.0123,-0.0611,-0.0815,-0.0886,-0.1063,-0.1113,-0.0612,-0.0627,-0.0669,-0.0668,-0.0668,-0.0668,-0.0668,-0.0668,0.0663,0.0783,0.0849,0.1118,0.1248,0.1473,0.1616,0.1882,0.2082,0.2377,0.2453,0.2452,0.1923,0.0298,-0.0801,-0.106,-0.144,-0.1507,-0.1681,-0.1396,-0.1371,-0.1347,-0.1394,-0.1596,-0.1597,-0.2117,-0.2123,-0.2127]}],[{"header":{"parameterUnit":"m.s-1","parameterCategory":2,"la1":30.2991,"la2":30.254,"lo1":-89.0895,"lo2":-89.0444,"dy":0.0017,"dx":0.0017,"nx":28,"ny":28,"refTime":"2025-03-11T09:00:00:Z","depth":"2","parameterNumber":2,"parameterNumberName":"U-component_of_CURRENTS"},"data":[0,0,0,0,0,0,0,0,0,0,0,0,0,0,0,0,0,0,0,0,0,0,0,0,0,0,0,0,0,0,0,0,0,0,0,0,0,0,0,0,0,0,0,0,0,0,0,0,0,0,0,0,0,0,0,0,0,0,0.2598,0.2599,0,0.2653,0.2654,0.2654,0.2687,0.2688,0.2688,0.2688,0.2707,0.2708,0.2708,0,0,0,0,0,0,0,0,0,0,0,0,0,0.2536,0.2537,0.2598,0.2599,0.26,0.2653,0.2654,0.2654,0.2687,0.2688,0.2688,0.2689,0.2707,0.2708,0.2708,0,0,0,0,0,0,0,0,0,0,0,0,0,0.2571,0.2537,0.2598,0.2625,0.2628,0.2653,0.2654,0.2654,0.2687,0.2688,0.2688,0.2689,0.2707,0.2708,0.2708,0.2696,0,0,0.2708,0.2708,0,0,0,0,0,0,0,0,0.2569,0.2573,0.262,0.2623,0.2627,0.2667,0.2639,0.2668,0.2687,0.2662,0.2688,0.2689,0.2692,0.2693,0.2699,0.2697,0.2698,0.2708,0.2708,0.2708,0.2708,0,0,0,0,0,0,0,0.2567,0.2571,0.2617,0.2621,0.2625,0.264,0.2645,0.2645,0.267,0.2664,0.2667,0.2678,0.2693,0.2698,0.2699,0.2698,0.2708,0.2708,0.2709,0.2709,0.2757,0.2758,0,0,0,0,0,0,0.2564,0.2569,0.2616,0.2619,0.2602,0.264,0.2646,0.2651,0.2671,0.2675,0.2677,0.2679,0.2698,0.2699,0.27,0.2744,0.2708,0.2709,0.2709,0.2756,0.2757,0.2759,0,0,0,0,0,0,0.2563,0.2568,0.2613,0.2598,0.2605,0.2641,0.2646,0.2652,0.2673,0.2682,0.2685,0.2695,0.2698,0.27,0.2717,0.2743,0.2709,0.2709,0.2754,0.2756,0.2758,0.2796,0,0,0,0,0,0,0.2561,0.2567,0.2571,0.2597,0.2606,0.2637,0.2646,0.2652,0.2679,0.2683,0.2698,0.2699,0.2699,0.2717,0.2718,0.2742,0.2709,0.2753,0.2755,0.2757,0.2793,0.2798,0.2803,0,0,0,0,0,0.2558,0.2557,0.2571,0.2577,0.261,0.2638,0.2643,0.2669,0.268,0.269,0.2705,0.27,0.2732,0.2718,0.2718,0.2744,0.2752,0.2755,0.2757,0.279,0.2797,0.2803,0,0,0,0,0,0,0.2523,0.2562,0.2577,0.2585,0.2616,0.2645,0.2658,0.2676,0.2696,0.2702,0.2707,0.271,0.2739,0.2734,0.2718,0.2766,0.2744,0.2747,0.277,0.2776,0.2781,0.2831,0.2709,0,0,0,0,0,0.252,0.2535,0.2572,0.258,0.2598,0.2631,0.2647,0.2667,0.2689,0.2699,0.271,0.2726,0.2747,0.2755,0.2766,0.2783,0.2823,0.2803,0.2808,0.2813,0.2854,0.2935,0.2952,0.2767,0.2767,0.2767,0,0,0.2507,0.2532,0.2539,0.2576,0.2601,0.2629,0.2642,0.2671,0.27,0.2696,0.273,0.2742,0.2756,0.2784,0.2796,0.2784,0.2881,0.2816,0.282,0.286,0.294,0.2959,0.2975,0.2769,0.2769,0.2768,0,0,0.2492,0.2516,0.2528,0.256,0.2606,0.263,0.2643,0.2681,0.2707,0.2735,0.2752,0.2785,0.2795,0.2827,0.284,0.2881,0.2907,0.2878,0.2944,0.302,0.3037,0.3052,0.3106,0.3126,0.2879,0.2879,0.2879,0,0.2474,0.2503,0.2535,0.2562,0.2594,0.2634,0.2662,0.2692,0.2731,0.2779,0.275,0.2839,0.2823,0.291,0.2917,0.2895,0.2943,0.2914,0.303,0.3046,0.3061,0.3112,0.3134,0.2882,0.2881,0.2881,0.2881,0,0.2478,0.2509,0.2521,0.2573,0.2606,0.2639,0.2691,0.2735,0.2765,0.2813,0.2902,0.2901,0.2972,0.2956,0.2942,0.3052,0.3051,0.3027,0.3017,0.3082,0.3131,0.3153,0.2885,0.2884,0.2883,0.2883,0,0,0.2419,0.2507,0.2513,0.2555,0.2623,0.2653,0.2718,0.2809,0.2891,0.2924,0.3031,0.3055,0.3098,0.3119,0.3118,0.3168,0.3272,0.3147,0.315,0.3206,0.3449,0.3374,0.339,0.3278,0.3282,0.3286,0.3433,0,0.2417,0.2472,0.2518,0.2582,0.2622,0.2697,0.2762,0.2853,0.2932,0.3039,0.3099,0.3178,0.3149,0.3183,0.3243,0.3271,0.3337,0.3235,0.3375,0.3379,0.3309,0.3415,0.314,0.3243,0.3454,0.3458,0.3461,0,0.2407,0.2455,0.2511,0.2624,0.265,0.2697,0.2848,0.2906,0.3074,0.3152,0.3281,0.3327,0.3435,0.3369,0.3518,0.3463,0.348,0.3485,0.3491,0.3435,0.3346,0.3217,0.3275,0.3497,0.3494,0.3491,0.3489,0,0.2362,0.2454,0.2503,0.2537,0.2659,0.2722,0.279,0.2951,0.3057,0.3232,0.3325,0.3481,0.3546,0.3623,0.364,0.36,0.378,0.3716,0.3677,0.367,0.3474,0.3442,0.3839,0.3839,0.3839,0.3838,0.3838,0,0.2347,0.2388,0.2495,0.2526,0.2619,0.2703,0.2838,0.2945,0.3139,0.3272,0.3377,0.3499,0.3615,0.3715,0.3723,0.3785,0.3862,0.3738,0.3727,0.3473,0.3442,0.3687,0.3668,0.3844,0.3842,0.3841,0.384,0,0.2289,0.2352,0.242,0.255,0.2599,0.2659,0.2859,0.2967,0.3135,0.3309,0.3365,0.357,0.3687,0.3776,0.3895,0.3878,0.3929,0.3921,0.3608,0.3557,0.3747,0.3728,0.3923,0.3922,0.3921,0.3921,0.392,0,0.2267,0.2294,0.2417,0.2473,0.2537,0.2656,0.2747,0.2948,0.3065,0.3331,0.3396,0.3586,0.3682,0.3845,0.386,0.3913,0.3944,0.3671,0.354,0.38,0.3768,0.375,0.3732,0.3283,0.3277,0.3273,0.3269,0,0.2241,0.2277,0.2341,0.2445,0.2538,0.2637,0.2774,0.2868,0.3079,0.3213,0.337,0.3467,0.364,0.3586,0.3677,0.3656,0.3643,0.3578,0.397,0.3297,0.3206,0.3171,0.3173,0.3227,0.3231,0.3234,0.3237,0.3238,0.2229,0.2264,0.2352,0.2433,0.2524,0.2585,0.2615,0.2751,0.2879,0.3024,0.3208,0.3256,0.3355,0.3354,0.3279,0.3236,0.3472,0.3315,0.3326,0.3342,0.3235,0.3147,0.3136,0.314,0.3143,0.3146,0.3148,0,0.2246,0.2289,0.2351,0.2435,0.246,0.2534,0.2613,0.2594,0.263,0.2815,0.2918,0.2773,0.278,0.2859,0.2743,0.2769,0.27,0.2649,0.2524,0.2571,0.2612,0.2461,0.2161,0.2157,0.2153,0.215,0,0,0.2278,0.2319,0.2324,0.2343,0.2383,0.2367,0.2354,0.232,0.2386,0.2389,0.2433,0.2688,0.2811,0.2449,0.2421,0.2263,0.2386,0.2182,0.2989,0.2891,0.2926,0.3031,0.2859,0,0,0,0,0]},{"header":{"parameterUnit":"m.s-1","parameterCategory":2,"la1":30.2991,"la2":30.254,"lo1":-89.0895,"lo2":-89.0444,"dy":0.0017,"dx":0.0017,"nx":28,"ny":28,"refTime":"2025-03-11T09:00:00:Z","depth":"2","parameterNumber":3,"parameterNumberName":"V-component_of_CURRENTS"},"data":[0,0,0,0,0,0,0,0,0,0,0,0,0,0,0,0,0,0,0,0,0,0,0,0,0,0,0,0,0,0,0,0,0,0,0,0,0,0,0,0,0,0,0,0,0,0,0,0,0,0,0,0,0,0,0,0,0,0,0.0014,0.0013,0,-0.0071,-0.0072,-0.0073,-0.0123,-0.0123,-0.0123,-0.0123,-0.0214,-0.0216,-0.0218,0,0,0,0,0,0,0,0,0,0,0,0,0,0.0081,0.008,0.0014,0.0013,0.0012,-0.0071,-0.0072,-0.0073,-0.0123,-0.0123,-0.0123,-0.0123,-0.0213,-0.0216,-0.0218,0,0,0,0,0,0,0,0,0,0,0,0,0,0.0029,0.008,0.0014,-0.0022,-0.0026,-0.007,-0.0072,-0.0073,-0.0123,-0.0123,-0.0123,-0.0123,-0.0212,-0.0215,-0.0219,-0.0238,0,0,-0.0229,-0.0231,0,0,0,0,0,0,0,0,0.0032,0.0026,-0.0016,-0.0019,-0.0024,-0.0085,-0.0081,-0.0128,-0.0123,-0.0088,-0.0123,-0.0123,-0.017,-0.0177,-0.0195,-0.0242,-0.0246,-0.023,-0.0232,-0.0233,-0.0234,0,0,0,0,0,0,0,0.0035,0.0029,-0.0021,-0.0017,-0.0022,-0.0051,-0.0058,-0.0091,-0.0128,-0.0091,-0.0094,-0.0101,-0.0173,-0.0191,-0.0197,-0.0247,-0.023,-0.0233,-0.0235,-0.0236,-0.03,-0.03,0,0,0,0,0,0,0.0051,0.0033,-0.0018,-0.0024,0.0006,-0.0052,-0.006,-0.0067,-0.0128,-0.0137,-0.0101,-0.0103,-0.0185,-0.0193,-0.0201,-0.0203,-0.0233,-0.0237,-0.0239,-0.03,-0.03,-0.0299,0,0,0,0,0,0,0.0053,0.0048,-0.0015,0.0004,-0.0006,-0.0052,-0.006,-0.0068,-0.0085,-0.0136,-0.0145,-0.0109,-0.0186,-0.0196,-0.0223,-0.0208,-0.0238,-0.0241,-0.0301,-0.03,-0.03,-0.0224,0,0,0,0,0,0,0.0056,0.0049,0.0048,0.0005,-0.0006,-0.0034,-0.006,-0.007,-0.0089,-0.0093,-0.0145,-0.0154,-0.0187,-0.0217,-0.0226,-0.0213,-0.0244,-0.0301,-0.0301,-0.03,-0.0227,-0.0221,-0.0216,0,0,0,0,0,0.0058,0.0061,0.0048,0.0042,-0.0006,-0.0034,-0.0042,-0.0077,-0.0089,-0.0093,-0.0127,-0.0152,-0.0219,-0.022,-0.023,-0.0218,-0.0302,-0.0301,-0.03,-0.0229,-0.0222,-0.0216,0,0,0,0,0,0,0.009,0.0055,0.004,0.0032,0.0005,-0.0041,-0.0049,-0.0072,-0.0103,-0.0105,-0.0152,-0.0163,-0.0182,-0.0211,-0.0211,-0.0235,-0.0263,-0.0264,-0.0206,-0.0199,-0.0194,-0.0172,-0.0247,0,0,0,0,0,0.0097,0.009,0.0052,0.0046,0.0036,-0.0005,-0.0022,-0.0043,-0.0075,-0.0089,-0.0125,-0.0159,-0.0187,-0.0201,-0.0234,-0.0247,-0.0277,-0.0246,-0.024,-0.0235,-0.0225,-0.0264,-0.026,-0.0297,-0.0297,-0.0297,0,0,0.0108,0.0088,0.0084,0.0053,0.0028,0.0025,-0.0016,-0.0033,-0.0032,-0.0094,-0.0104,-0.0144,-0.0188,-0.0202,-0.0213,-0.0224,-0.0239,-0.0234,-0.0229,-0.0222,-0.0262,-0.0259,-0.0256,-0.0296,-0.0296,-0.0296,0,0,0.0134,0.011,0.0115,0.0098,0.007,0.0047,0.0047,0.0007,-0.0008,-0.0028,-0.0067,-0.0095,-0.0142,-0.0165,-0.0183,-0.0167,-0.0211,-0.0178,-0.0129,-0.0166,-0.0163,-0.0161,-0.0186,-0.0187,-0.0171,-0.0171,-0.0171,0,0.0149,0.0153,0.0112,0.0117,0.0117,0.0065,0.0082,0.0055,0.0013,0.0012,-0.002,-0.0079,-0.0121,-0.0128,-0.0126,-0.0152,-0.018,-0.0149,-0.0158,-0.0156,-0.0156,-0.0182,-0.0183,-0.0167,-0.0168,-0.0168,-0.0169,0,0.018,0.0186,0.0189,0.0182,0.0175,0.0178,0.0147,0.0135,0.0109,0.0085,0.0064,-0.0001,-0.0031,-0.0052,-0.0087,-0.0093,-0.0117,-0.0149,-0.0171,-0.0147,-0.0176,-0.018,-0.0162,-0.0163,-0.0165,-0.0165,0,0,0.0212,0.0213,0.0215,0.024,0.0215,0.0222,0.0221,0.0217,0.0238,0.0173,0.019,0.012,0.0081,0.0057,0.0006,-0.003,-0.0054,-0.0082,-0.0085,-0.0098,-0.0129,-0.0153,-0.016,-0.0091,-0.0091,-0.0091,-0.0149,0,0.0253,0.0293,0.0277,0.0327,0.0352,0.0319,0.0331,0.0319,0.03,0.0299,0.0223,0.0211,0.0124,0.0115,0.0061,-0.0019,-0.006,-0.0034,-0.0157,-0.016,-0.0179,-0.0164,-0.0136,-0.0186,-0.0152,-0.0153,-0.0153,0,0.0293,0.032,0.0374,0.0424,0.0432,0.0449,0.0483,0.0493,0.0468,0.0451,0.041,0.0345,0.0285,0.0204,0.0069,0.0088,-0.0013,-0.0088,-0.0092,-0.0143,-0.0191,-0.0208,-0.0193,-0.0159,-0.0159,-0.0158,-0.0158,0,0.035,0.0396,0.0451,0.0462,0.0494,0.0519,0.0541,0.0539,0.058,0.0554,0.0569,0.0469,0.0439,0.0288,0.0115,0.0093,-0.0035,-0.0083,-0.0201,-0.0203,-0.0217,-0.022,-0.0182,-0.0182,-0.0182,-0.0182,-0.0182,0,0.0405,0.0455,0.0485,0.0515,0.0602,0.0597,0.0687,0.0686,0.0713,0.0785,0.0657,0.0674,0.0457,0.0347,0.0165,-0.0019,-0.0001,-0.0185,-0.022,-0.0189,-0.0189,-0.02,-0.0201,-0.0184,-0.0184,-0.0183,-0.0183,0,0.046,0.0472,0.0552,0.0604,0.063,0.0697,0.0796,0.0865,0.0862,0.0949,0.0945,0.0844,0.0696,0.0468,0.0246,0.0072,-0.0118,-0.0192,-0.0136,-0.0164,-0.0274,-0.0271,-0.0323,-0.0325,-0.0326,-0.0327,-0.0327,0,0.049,0.0528,0.0622,0.069,0.0719,0.0819,0.0894,0.0936,0.1027,0.1061,0.1115,0.0991,0.0918,0.057,0.0248,-0.0064,-0.0113,-0.024,-0.0287,-0.026,-0.0289,-0.0284,-0.0279,-0.0272,-0.0272,-0.0272,-0.0272,0,0.0558,0.0584,0.0658,0.079,0.0885,0.1009,0.1125,0.1214,0.1279,0.1329,0.1373,0.1308,0.0976,0.0655,0.0224,0.0012,-0.0193,-0.0255,-0.0236,-0.0241,-0.0217,-0.0243,-0.0239,-0.0274,-0.0274,-0.0274,-0.0274,-0.0274,0.0614,0.0685,0.078,0.0913,0.1033,0.1185,0.1305,0.1416,0.1548,0.1637,0.157,0.1478,0.1108,0.055,0.0174,-0.021,-0.0201,-0.0339,-0.0336,-0.0334,-0.0318,-0.0297,-0.0366,-0.0367,-0.0367,-0.0367,-0.0367,0,0.069,0.0773,0.0901,0.1069,0.1218,0.126,0.1455,0.1565,0.1717,0.1763,0.1774,0.1419,0.1036,0.0614,0.0038,-0.0311,-0.0333,-0.0412,-0.0368,-0.0364,-0.036,-0.0345,-0.0401,-0.0402,-0.0403,-0.0404,0,0,0.0738,0.087,0.0939,0.1192,0.1319,0.1526,0.1643,0.1769,0.1844,0.1875,0.1817,0.1692,0.1162,0.0744,0.0261,-0.007,-0.0129,-0.0128,-0.0064,0.005,0.0058,-0.0284,-0.0251,0,0,0,0,0]}],[{"header":{"parameterUnit":"m.s-1","parameterCategory":2,"la1":30.2991,"la2":30.254,"lo1":-89.0895,"lo2":-89.0444,"dy":0.0017,"dx":0.0017,"nx":28,"ny":28,"refTime":"2025-03-11T09:00:00:Z","depth":"4","parameterNumber":2,"parameterNumberName":"U-component_of_CURRENTS"},"data":[0,0,0,0,0,0,0,0,0,0,0,0,0,0,0,0,0,0,0,0,0,0,0,0,0,0,0,0,0,0,0,0,0,0,0,0,0,0,0,0,0,0,0,0,0,0,0,0,0,0,0,0,0,0,0,0,0,0,0.1632,0.1634,0,0.1752,0.1753,0.1754,0.1833,0.1833,0.1834,0.1835,0.1931,0.1933,0.1934,0,0,0,0,0,0,0,0,0,0,0,0,0,0.1467,0.1469,0.1632,0.1634,0.1635,0.1751,0.1753,0.1754,0.1833,0.1833,0.1834,0.1835,0.193,0.1932,0.1935,0,0,0,0,0,0,0,0,0,0,0,0,0,0.1556,0.147,0.1632,0.169,0.1697,0.1751,0.1753,0.1755,0.1832,0.1833,0.1835,0.1836,0.1929,0.1932,0.1935,0.1931,0,0,0.1944,0.1945,0,0,0,0,0,0,0,0,0.155,0.1561,0.168,0.1686,0.1694,0.178,0.173,0.1813,0.1832,0.1779,0.1835,0.1836,0.1879,0.1886,0.1903,0.1936,0.194,0.1944,0.1946,0.1947,0.1948,0,0,0,0,0,0,0,0.1544,0.1557,0.1677,0.1682,0.169,0.1709,0.1722,0.1746,0.1819,0.1783,0.179,0.1806,0.1882,0.19,0.1906,0.1941,0.1944,0.1946,0.1948,0.1949,0.2074,0.2075,0,0,0,0,0,0,0.1533,0.1551,0.1674,0.1681,0.1626,0.1711,0.1726,0.175,0.182,0.1832,0.1805,0.1809,0.1895,0.1903,0.191,0.1996,0.1947,0.1949,0.1951,0.2072,0.2074,0.2076,0,0,0,0,0,0,0.1529,0.1543,0.1669,0.162,0.1637,0.1713,0.1739,0.1751,0.181,0.1837,0.1849,0.1856,0.1896,0.1906,0.1966,0.1997,0.1951,0.1953,0.207,0.2073,0.2075,0.2113,0,0,0,0,0,0,0.1524,0.1541,0.1572,0.1619,0.164,0.1727,0.1738,0.1753,0.1817,0.1825,0.1883,0.1891,0.1898,0.1962,0.1969,0.2,0.1955,0.2068,0.2072,0.2074,0.2109,0.2116,0.2122,0,0,0,0,0,0.1518,0.1555,0.1573,0.1589,0.1674,0.1729,0.1742,0.1796,0.1819,0.1852,0.1892,0.1891,0.1986,0.1965,0.1973,0.2006,0.2067,0.2071,0.2074,0.2107,0.2115,0.2122,0,0,0,0,0,0,0.1505,0.1568,0.1589,0.1646,0.1694,0.1744,0.1789,0.1817,0.1875,0.1895,0.1913,0.1924,0.1988,0.1994,0.1971,0.2052,0.2026,0.2031,0.2048,0.2056,0.2062,0.2048,0.1958,0,0,0,0,0,0.1513,0.156,0.1612,0.1662,0.169,0.1744,0.1781,0.1816,0.1865,0.1894,0.1931,0.1969,0.2001,0.2028,0.2057,0.2102,0.2113,0.2128,0.2135,0.214,0.2135,0.2178,0.2187,0.2088,0.2088,0.2088,0,0,0.1523,0.1565,0.1594,0.1663,0.1709,0.175,0.1771,0.1839,0.1874,0.1893,0.1965,0.1997,0.202,0.2071,0.21,0.2085,0.218,0.2144,0.2148,0.214,0.2183,0.2192,0.22,0.209,0.209,0.209,0,0,0.1549,0.1605,0.1645,0.1686,0.1758,0.1788,0.1814,0.1882,0.1919,0.1981,0.2003,0.2052,0.211,0.2127,0.214,0.2198,0.2212,0.222,0.224,0.2283,0.2291,0.2298,0.2345,0.2356,0.2222,0.2222,0.2222,0,0.156,0.1612,0.1665,0.1707,0.1741,0.1806,0.1841,0.1888,0.1966,0.1994,0.2013,0.2105,0.2127,0.2174,0.2197,0.221,0.2244,0.2208,0.229,0.2297,0.2304,0.235,0.2361,0.2224,0.2224,0.2224,0.2223,0,0.1596,0.1649,0.1681,0.1747,0.1789,0.1841,0.1894,0.1951,0.2001,0.2039,0.2116,0.2153,0.2207,0.2224,0.2228,0.2291,0.2305,0.2293,0.2266,0.2316,0.2362,0.2373,0.2227,0.2226,0.2226,0.2225,0,0,0.1586,0.1685,0.1698,0.1723,0.1814,0.1842,0.1911,0.1974,0.2023,0.2097,0.2156,0.221,0.225,0.2267,0.2291,0.2322,0.2403,0.2335,0.2336,0.2374,0.2519,0.2382,0.2382,0.2418,0.242,0.2421,0.2539,0,0.1598,0.1662,0.1713,0.177,0.1801,0.1871,0.1922,0.1989,0.206,0.2138,0.2188,0.2264,0.2262,0.2311,0.2341,0.2398,0.2433,0.2373,0.2471,0.2474,0.234,0.2389,0.2427,0.2547,0.255,0.2552,0.2553,0,0.1605,0.1645,0.1699,0.1767,0.1789,0.1835,0.1922,0.198,0.2096,0.2159,0.2244,0.2306,0.2388,0.2374,0.2481,0.2454,0.2489,0.2514,0.2519,0.2379,0.2357,0.2484,0.2573,0.2572,0.257,0.2569,0.2568,0,0.1541,0.1628,0.1664,0.1691,0.1785,0.1823,0.1882,0.199,0.2055,0.2196,0.2277,0.2368,0.2455,0.2502,0.2578,0.2549,0.2687,0.2649,0.2553,0.2546,0.2617,0.2608,0.2706,0.2706,0.2706,0.2705,0.2705,0,0.1515,0.1547,0.1643,0.1663,0.1707,0.1788,0.1864,0.1944,0.2082,0.217,0.2296,0.2385,0.2497,0.2594,0.2618,0.2632,0.2728,0.256,0.2562,0.2634,0.2625,0.2626,0.2615,0.271,0.2709,0.2708,0.2707,0,0.1439,0.1513,0.1551,0.1647,0.1682,0.1714,0.1853,0.1915,0.2065,0.2193,0.2254,0.244,0.2564,0.2656,0.2758,0.2685,0.2708,0.2687,0.279,0.2795,0.2527,0.2517,0.257,0.2566,0.2563,0.256,0.2558,0,0.1404,0.142,0.1517,0.1545,0.1597,0.1672,0.1734,0.1889,0.1964,0.2208,0.2258,0.2454,0.2558,0.2603,0.2693,0.2732,0.2696,0.2685,0.2553,0.2514,0.2511,0.2507,0.2502,0.2552,0.2551,0.255,0.255,0,0.132,0.1369,0.1401,0.1465,0.1529,0.1587,0.169,0.1737,0.1929,0.209,0.2222,0.2309,0.2448,0.2521,0.2586,0.2598,0.267,0.2649,0.2654,0.253,0.2493,0.2493,0.2492,0.2538,0.254,0.2541,0.2541,0,0.1253,0.1254,0.1315,0.1357,0.1436,0.1479,0.1548,0.1649,0.1748,0.2012,0.2055,0.2267,0.2433,0.2456,0.2513,0.2522,0.2461,0.2352,0.2371,0.2385,0.2266,0.2189,0.2145,0,0,0,0,0,0.1173,0.117,0.1203,0.1244,0.1323,0.1374,0.1508,0.159,0.1783,0.1827,0.1935,0.2058,0.2169,0.2273,0.2243,0.2413,0.2458,0.2365,0.2339,0.2473,0.2487,0.2361,0,0,0,0,0,0,0.1123,0.1142,0.1159,0.115,0.1163,0.124,0.1326,0.1458,0.1486,0.1692,0.1766,0.1919,0.2054,0.2165,0.2199,0.2227,0.2165,0.2487,0.2481,0.2466,0.2478,0.2489,0.2365,0,0,0,0,0]},{"header":{"parameterUnit":"m.s-1","parameterCategory":2,"la1":30.2991,"la2":30.254,"lo1":-89.0895,"lo2":-89.0444,"dy":0.0017,"dx":0.0017,"nx":28,"ny":28,"refTime":"2025-03-11T09:00:00:Z","depth":"4","parameterNumber":3,"parameterNumberName":"V-component_of_CURRENTS"},"data":[0,0,0,0,0,0,0,0,0,0,0,0,0,0,0,0,0,0,0,0,0,0,0,0,0,0,0,0,0,0,0,0,0,0,0,0,0,0,0,0,0,0,0,0,0,0,0,0,0,0,0,0,0,0,0,0,0,0,0.0084,0.0083,0,0.0012,0.0011,0.001,-0.0024,-0.0024,-0.0024,-0.0024,-0.0101,-0.0103,-0.0105,0,0,0,0,0,0,0,0,0,0,0,0,0,0.0158,0.0157,0.0084,0.0083,0.0082,0.0012,0.0011,0.001,-0.0024,-0.0024,-0.0024,-0.0024,-0.01,-0.0103,-0.0105,0,0,0,0,0,0,0,0,0,0,0,0,0,0.0109,0.0157,0.0084,0.0057,0.0054,0.0012,0.0011,0.0009,-0.0024,-0.0024,-0.0024,-0.0024,-0.0099,-0.0103,-0.0106,-0.013,0,0,-0.0116,-0.0117,0,0,0,0,0,0,0,0,0.0112,0.0106,0.0062,0.0059,0.0056,0.0004,0.0009,-0.0037,-0.0024,0.0004,-0.0024,-0.0024,-0.0066,-0.0072,-0.0087,-0.0133,-0.0137,-0.0116,-0.0118,-0.0119,-0.012,0,0,0,0,0,0,0,0.0115,0.0109,0.0054,0.0061,0.0057,0.0038,0.0031,-0.0,-0.0032,0.0002,-0.0,-0.0007,-0.0068,-0.0084,-0.0089,-0.0138,-0.0116,-0.0119,-0.0121,-0.0122,-0.0188,-0.0188,0,0,0,0,0,0,0.0128,0.0112,0.0056,0.0052,0.0086,0.0037,0.0029,0.0019,-0.0032,-0.0039,-0.0007,-0.0008,-0.0079,-0.0085,-0.0092,-0.0095,-0.0119,-0.0122,-0.0124,-0.0188,-0.0188,-0.0188,0,0,0,0,0,0,0.0129,0.0123,0.0059,0.0082,0.0072,0.0035,0.0025,0.0018,0.0003,-0.0038,-0.0045,-0.0014,-0.0079,-0.0088,-0.0115,-0.0099,-0.0124,-0.0127,-0.0189,-0.0188,-0.0188,-0.0119,0,0,0,0,0,0,0.0132,0.0124,0.0121,0.0082,0.0072,0.0038,0.0024,0.0016,-0.0001,-0.0003,-0.0047,-0.0054,-0.0079,-0.011,-0.0118,-0.0104,-0.0129,-0.0189,-0.0188,-0.0188,-0.0122,-0.0117,-0.0112,0,0,0,0,0,0.0135,0.0127,0.0121,0.0114,0.0068,0.0038,0.003,0.0004,-0.0001,-0.0008,-0.0034,-0.0053,-0.0113,-0.0112,-0.0122,-0.0109,-0.0189,-0.0188,-0.0188,-0.0124,-0.0118,-0.0113,0,0,0,0,0,0,0.0152,0.0122,0.0114,0.0097,0.0073,0.0033,0.0022,0.0007,-0.0021,-0.002,-0.0056,-0.0065,-0.0084,-0.0109,-0.0108,-0.0128,-0.0152,-0.0153,-0.01,-0.0094,-0.009,-0.0061,-0.0132,0,0,0,0,0,0.0157,0.0147,0.0115,0.0101,0.0092,0.0059,0.0044,0.0028,-0.0,-0.0012,-0.0041,-0.0068,-0.0091,-0.0102,-0.0132,-0.0145,-0.0174,-0.0142,-0.0138,-0.0133,-0.0117,-0.0147,-0.0143,-0.0186,-0.0186,-0.0186,0,0,0.0161,0.0143,0.0137,0.0106,0.0085,0.0081,0.005,0.0031,0.0033,-0.0016,-0.0025,-0.0059,-0.0094,-0.0106,-0.0115,-0.0123,-0.014,-0.0133,-0.0128,-0.0115,-0.0146,-0.0142,-0.0138,-0.0186,-0.0186,-0.0186,0,0,0.0169,0.0148,0.0147,0.0133,0.0109,0.0092,0.009,0.0055,0.0046,0.0026,-0.0,-0.0019,-0.0065,-0.0075,-0.0088,-0.0076,-0.0119,-0.009,-0.0036,-0.0065,-0.0062,-0.0059,-0.0104,-0.0106,-0.0081,-0.0081,-0.0081,0,0.0176,0.0174,0.0142,0.0142,0.0144,0.0104,0.0116,0.0095,0.0058,0.0063,0.0033,-0.001,-0.0044,-0.0039,-0.0034,-0.0062,-0.0095,-0.0053,-0.0058,-0.0055,-0.0053,-0.01,-0.0103,-0.0078,-0.0078,-0.0078,-0.0079,0,0.0188,0.0192,0.019,0.0186,0.018,0.018,0.0159,0.0151,0.0134,0.0119,0.0108,0.0057,0.004,0.0022,-0.0003,0.0003,-0.0032,-0.0053,-0.0067,-0.0044,-0.0096,-0.01,-0.0073,-0.0074,-0.0075,-0.0076,0,0,0.0195,0.0201,0.0202,0.0227,0.0211,0.0214,0.022,0.0224,0.0246,0.0196,0.0215,0.0171,0.0145,0.0129,0.0091,0.0068,0.0043,0.0021,0.0018,-0.0015,-0.0037,-0.0061,-0.0068,0.0019,0.0019,0.0019,-0.0084,0,0.0221,0.025,0.0243,0.0285,0.0306,0.0291,0.0307,0.0307,0.0293,0.0294,0.0248,0.024,0.0185,0.0178,0.0146,0.0067,0.0038,0.0072,-0.0061,-0.0065,-0.0081,-0.0071,0.0019,-0.0087,-0.0088,-0.0089,-0.0089,0,0.024,0.0265,0.0311,0.0364,0.0372,0.0391,0.0432,0.0442,0.0431,0.0421,0.0401,0.0351,0.0312,0.0256,0.0142,0.0162,0.0076,0.0009,0.0003,-0.004,-0.0095,-0.0113,-0.0097,-0.0096,-0.0095,-0.0095,-0.0094,0,0.0277,0.032,0.0369,0.0382,0.042,0.0451,0.0475,0.0485,0.0515,0.0504,0.051,0.0445,0.0408,0.03,0.0149,0.0145,0.0009,-0.0018,-0.0119,-0.0124,-0.0102,-0.0104,-0.0088,-0.0088,-0.0088,-0.0087,-0.0087,0,0.0311,0.0355,0.0396,0.0422,0.0502,0.0509,0.0587,0.0595,0.0616,0.0654,0.0582,0.0576,0.0417,0.0311,0.0175,0.0011,0.0024,-0.0104,-0.0143,-0.0075,-0.0072,-0.0106,-0.0107,-0.0091,-0.0091,-0.009,-0.0089,0,0.0341,0.0361,0.0431,0.0491,0.0519,0.0578,0.0665,0.0717,0.0722,0.0761,0.0759,0.067,0.0526,0.0354,0.0164,0.0048,-0.0106,-0.0165,-0.0087,-0.0122,-0.0228,-0.0224,-0.0285,-0.0286,-0.0288,-0.0289,-0.0289,0,0.0355,0.0389,0.0481,0.0535,0.0568,0.0658,0.0721,0.0766,0.0816,0.0814,0.0828,0.0708,0.0622,0.0344,0.0153,-0.0109,-0.0146,-0.023,-0.0217,-0.0212,-0.0245,-0.0239,-0.0233,-0.0291,-0.0292,-0.0292,-0.0292,0,0.039,0.0421,0.0483,0.0588,0.067,0.077,0.0855,0.0897,0.0935,0.0938,0.0891,0.0742,0.0574,0.0347,0.0139,-0.0047,-0.0176,-0.0244,-0.0242,-0.0231,-0.0221,-0.0251,-0.0244,-0.0297,-0.0296,-0.0296,-0.0296,0,0.0418,0.047,0.0547,0.0645,0.0749,0.0843,0.0892,0.0943,0.0989,0.0971,0.0949,0.0769,0.0663,0.0377,0.0187,-0.0003,-0.0052,-0.0109,-0.0115,-0.0113,-0.0036,0.0003,-0.0029,0,0,0,0,0,0.0442,0.0505,0.0597,0.0709,0.081,0.0872,0.0964,0.0999,0.1025,0.1004,0.0981,0.0825,0.0537,0.0415,0.0222,0.0147,-0.0096,-0.0087,-0.0167,-0.0321,-0.0316,-0.0258,0,0,0,0,0,0,0.0464,0.055,0.0602,0.0739,0.0818,0.0938,0.0998,0.1017,0.1007,0.0994,0.085,0.0774,0.0499,0.065,0.0219,0.016,0.0081,-0.0221,-0.0225,-0.0324,-0.032,-0.0316,-0.0254,0,0,0,0,0]}]]